EXPLORER 38 DEB, 28608

Orbit data source: Space-Track

EXPLORER 38 DEB, 28608 is space debris originally from a launch on Thu, 04 Jul 1968 UTC launched from the Air Force Western Test Range (AFWTR). Debris objects in space refer to the collection of defunct objects orbiting the Earth. Examples of debris include non-operational satellites, rocket bodies, and fragments generated from explosions, collisions, or faulty payload assembly.

Loading next visibility...
Identifier
28608, 1968-055M
Orbit
Active
Country
Flag of USUS
Related business
Manufacturer
Unknown
Mission
Spacecraft
Bus & Motor
Unknown
Mass
Unknown
Launch date (UTC)
1968-07-04 (57 years ago)
Launch vehicle
Unknown
Launch site
Air Force Western Test Range (AFWTR)
Object type
Payload
Rocket body
Debris
Shape & HBR
Unknown
Radar Cross Section
Medium (>0.1 m² and <1 m²)

Expand to show TLE details & history
Last TLE update: 1 month ago

TLE from 1 month ago
0 EXPLORER 38 DEB
1 28608U 68055M   25278.25729856 -.00000010  00000-0  00000-0 0  9998
2 28608 120.8850  27.5932 0016861 262.9254 183.1739  6.42253363280309
Epoch: 2025-10-05T06:10Z
TLE epoch observation values (Epoch: 2025-10-05T06:10:30.595Z)
Latitude
58.97513°
Longitude
-161.61849°
Altitude
5,876.692 km
Speed
5.703 km/s
True Right ascension
20h 20m 44s
True Declination
58° 53' 12"
Sunlit
Object was in daylight at epoch
Visualization orbit readout
Latitude
Unknown
Longitude
Unknown
Altitude
Unknown
Speed
Unknown
Apparent Right ascension
Unknown
Apparent Declination
Unknown
Sunlit
N/A
Visualization observer readout
Local Sidereal Time
03:44:41
Azimuth
Unknown
Elevation
Unknown
Doppler factor
Unknown
Orbital elements
Apogee altitude
5,867.539 km
Perigee altitude
5,826.313 km
Semi-major axis
12,225.063 km
Eccentricity
0.00169
Inclination
120.885°
RAAN
27.5932°
Arg. of periapsis
262.9254°
True anomaly
183.16322°
Mean anomaly
183.1739°
Eccentric anomaly
183.16856°
Mean motion
1.60571 °/min
Orbital period
224.2 mins
BSTAR
0
Loading maneuver chart data...
Computing Atmospheric mass density...
Loading historical data...
Loading historical data...
Loading historical data...
Loading historical data...
Loading historical data...
Loading historical data...
Loading historical data...

Documentation

Showing up to 5 results
|